User: anonymous   Login
Location: Vancouver
(49.2500°N, 123.1330°W)
Time: 20:47:11
(UTC-07:00)
Language:

Iridium 21 - Orbit

View from above orbital plane
View from above orbital plane
View from above satellite
View from above satellite

Ground track
Ground track

The orbit data is extracted from the following two-line orbital elements,

1 25778U 99032B   15245.88473922 +.00000214 +00000-0 +69229-4 0  9991
2 25778 086.3995 137.0933 0002275 082.9835 322.6907 14.34221755854390
Epoch (UTC): 02 September 2015 21:14:01
Eccentricity: 0.0002275
inclination: 86.3995°
perigee height: 776 km
apogee height: 779 km
right ascension of ascending node: 137.0933°
argument of perigee: 82.9835°
revolutions per day: 14.34221755
mean anomaly at epoch: 322.6907°
orbit number at epoch: 85439

The dashed part of the orbit path shows where the satellite is in the earth's shadow,  

DLR